DW2516 Weather Reports


time (UTC)temp
C
wind
direction
speed
KPH
gust
KPH
rain 1hr
cm
rain 24hr
cm
rain mn
cm
humidity
%
barometer
mb
20260505223053 15 0.0 0.0 0.00 0.00 0.00 70 1004.6
20260505221549 15 0.0 0.0 0.00 0.00 0.00 68 1004.8
20260505220042 15 0.0 0.0 0.00 0.00 0.00 67 1004.8
20260505214555 15 0.0 0.0 0.00 0.00 0.00 66 1004.5
20260505213052 16 0.0 0.0 0.00 0.00 0.00 65 1004.7
20260505211537 16 0.0 0.0 0.00 0.00 0.00 64 1004.6
20260505210035 16 0.0 0.0 0.00 0.00 0.00 63 1004.6
20260505204537 16 0.0 0.0 0.00 0.00 0.00 62 1004.4
20260505203042 16 0.0 0.0 0.00 0.00 0.00 62 1004.4
20260505201546 17 0.0 0.0 0.00 0.00 0.00 61 1004.4
20260505200033 17 0.0 0.0 0.00 0.00 0.00 61 1004.4
20260505194533 17 0.0 0.0 0.00 0.00 0.00 60 1004.4
20260505193043 17 0.0 0.0 0.00 0.00 0.00 59 1004.2
20260505191530 17 0.0 0.0 0.00 0.00 0.00 59 1004.4
20260505190035 17 0.0 0.0 0.00 0.00 0.00 58 1004.3
20260505184529 18 0.0 0.0 0.00 0.00 0.00 57 1004.4
20260505183044 18 0.0 0.0 0.00 0.00 0.00 56 1004.3
20260505181529 18 0.0 0.0 0.00 0.00 0.00 55 1004.4
20260505180034 19 0.0 0.0 0.00 0.00 0.00 53 1004.5
20260505174531 19 0.0 0.0 0.00 0.00 0.00 51 1004.6
20260505173035 19 0.0 0.0 0.00 0.00 0.00 49 1004.5
20260505171530 20 0.0 0.0 0.00 0.00 0.00 49 1004.4
20260505170024 20 0.0 0.0 0.00 0.00 0.00 47 1004.5
20260505164533 20 0.0 0.0 0.00 0.00 0.00 48 1004.6
20260505163024 20 0.0 0.0 0.00 0.00 0.00 48 1004.7
20260505161523 21 0.0 0.0 0.00 0.00 0.00 47 1004.8
20260505153027 23 0.0 0.0 0.00 0.00 0.00 44 1004.8
20260505151521 23 0.0 0.0 0.00 0.00 0.00 42 1004.7
20260505124507 26 0.0 0.0 0.00 0.00 0.00 36 1005.4
20260505123003 25 0.0 0.0 0.00 0.00 0.00 42 1005.5
20260505121600 25 0.0 0.0 0.00 0.00 0.00 43 1005.8
20260505120057 24 0.0 0.0 0.00 0.00 0.00 43 1006.1
20260505114601 23 0.0 0.0 0.00 0.00 0.00 43 1006.2
20260505113042 23 0.0 0.0 0.00 0.00 0.00 43 1006.5
20260505111538 23 0.0 0.0 0.00 0.00 0.00 43 1006.6
20260505101537 22 0.0 0.0 0.00 0.00 0.00 44 1007.0
20260505100033 22 0.0 0.0 0.00 0.00 0.00 44 1007.1
20260505094529 22 0.0 0.0 0.00 0.00 0.00 47 1007.2
20260505093029 22 0.0 0.0 0.00 0.00 0.00 46 1007.3
20260505091532 21 0.0 0.0 0.00 0.00 0.00 50 1007.5
20260505090036 20 0.0 0.0 0.00 0.00 0.00 52 1007.7
20260505084515 20 0.0 0.0 0.00 0.00 0.00 54 1007.8
20260505083011 19 0.0 0.0 0.00 0.00 0.00 55 1007.7
20260505081507 18 0.0 0.0 0.00 0.00 0.00 56 1007.7
20260505080006 18 0.0 0.0 0.00 0.00 0.00 55 1007.7
20260505074503 18 0.0 0.0 0.00 0.00 0.00 56 1007.8
20260505073059 17 0.0 0.0 0.00 0.00 0.00 58 1008.0
20260505071556 17 0.0 0.0 0.00 0.00 0.00 58 1008.1
20260505070054 16 0.0 0.0 0.00 0.00 0.00 59 1008.0
20260505064547 16 0.0 0.0 0.00 0.00 0.00 60 1008.2
20260505063046 15 0.0 0.0 0.00 0.00 0.00 62 1008.1
20260505061543 14 0.0 0.0 0.00 0.00 0.00 63 1008.1
20260505060042 13 0.0 0.0 0.00 0.00 0.00 63 1008.2
20260505054540 13 0.0 0.0 0.00 0.00 0.00 62 1008.0
20260505053039 13 0.0 0.0 0.00 0.00 0.00 63 1008.2
20260505051538 13 0.0 0.0 0.00 0.00 0.00 62 1008.1
20260505050106 13 0.0 0.0 0.00 0.00 0.00 62 1008.0
20260505041545 13 0.0 0.0 0.00 0.00 0.00 62 1007.9
20260505040027 13 0.0 0.0 0.00 0.00 0.00 62 1008.1
20260505034523 13 0.0 0.0 0.00 0.00 0.00 62 1008.0
20260505033018 13 0.0 0.0 0.00 0.00 0.00 60 1008.1
20260505031518 13 0.0 0.0 0.00 0.00 0.00 59 1008.1
20260505030011 13 0.0 0.0 0.00 0.00 0.00 58 1008.1
20260505024508 13 0.0 0.0 0.00 0.00 0.00 57 1008.2
20260505023005 14 0.0 0.0 0.00 0.00 0.00 56 1008.3
20260505021507 15 0.0 0.0 0.00 0.00 0.00 54 1008.5
20260505020055 15 0.0 0.0 0.00 0.00 0.00 54 1008.4
20260505014606 15 0.0 0.0 0.00 0.00 0.00 53 1008.5
20260505013052 15 0.0 0.0 0.00 0.00 0.00 53 1008.6
20260505011546 15 0.0 0.0 0.00 0.00 0.00 52 1008.8
20260505010044 15 0.0 0.0 0.00 0.00 0.00 51 1008.8
20260505004545 16 0.0 0.0 0.00 0.00 0.00 51 1008.9
20260505003040 16 0.0 0.0 0.00 0.00 0.00 50 1009.1
20260505001542 16 0.0 0.0 0.00 0.00 0.00 50 1009.1
20260505000043 16 0.0 0.0 0.00 0.00 0.00 50 1009.3
20260504234543 16 0.0 0.0 0.00 0.00 0.00 49 1009.4
20260504233033 16 0.0 0.0 0.00 0.00 0.00 49 1009.7
20260504231530 17 0.0 0.0 0.00 0.00 0.00 48 1009.7
20260504230029 17 0.0 0.0 0.00 0.00 0.00 48 1009.7
20260504224528 17 0.0 0.0 0.00 0.00 0.00 47 1009.8